TimeCST,TemperatureF,Dew PointF,Humidity,Sea Level PressureIn,VisibilityMPH,Wind Direction,Wind SpeedMPH,Gust SpeedMPH,PrecipitationIn,Events,Conditions,WindDirDegrees,DateUTC
12:53 AM,41.0,30.9,67,30.43,7.0,South,4.6,-,N/A,,Clear,180,2012-11-18 06:53:00
1:53 AM,39.0,30.9,73,30.43,6.0,South,5.8,-,N/A,,Haze,170,2012-11-18 07:53:00
2:53 AM,36.0,30.0,79,30.42,6.0,South,8.1,-,N/A,,Haze,170,2012-11-18 08:53:00
3:53 AM,37.0,30.0,76,30.41,6.0,SSE,3.5,-,N/A,,Haze,160,2012-11-18 09:53:00
4:53 AM,36.0,30.9,82,30.41,5.0,SSE,5.8,-,N/A,,Haze,160,2012-11-18 10:53:00
5:53 AM,36.0,30.0,79,30.41,5.0,South,3.5,-,N/A,,Haze,170,2012-11-18 11:53:00
6:53 AM,35.1,30.0,82,30.40,5.0,South,3.5,-,N/A,,Haze,180,2012-11-18 12:53:00
7:53 AM,37.0,30.9,79,30.41,4.0,South,6.9,-,N/A,,Haze,170,2012-11-18 13:53:00
8:53 AM,39.0,33.1,79,30.41,4.0,South,4.6,-,N/A,,Haze,170,2012-11-18 14:53:00
9:53 AM,46.0,34.0,63,30.39,7.0,South,10.4,-,N/A,,Clear,170,2012-11-18 15:53:00
10:53 AM,50.0,34.0,54,30.38,9.0,South,11.5,-,N/A,,Clear,180,2012-11-18 16:53:00
11:53 AM,53.1,33.1,47,30.34,10.0,SSE,11.5,-,N/A,,Clear,160,2012-11-18 17:53:00
12:53 PM,54.0,33.1,45,30.34,10.0,SSE,10.4,-,N/A,,Clear,160,2012-11-18 18:53:00
1:53 PM,55.9,32.0,40,30.32,10.0,South,13.8,-,N/A,,Clear,170,2012-11-18 19:53:00
2:53 PM,55.0,32.0,42,30.31,10.0,South,11.5,-,N/A,,Clear,180,2012-11-18 20:53:00
3:53 PM,53.1,30.0,41,30.32,10.0,South,12.7,-,N/A,,Clear,170,2012-11-18 21:53:00
4:53 PM,50.0,30.9,48,30.32,10.0,South,9.2,-,N/A,,Clear,170,2012-11-18 22:53:00
5:53 PM,46.9,32.0,56,30.32,10.0,SE,8.1,-,N/A,,Clear,140,2012-11-18 23:53:00
6:53 PM,46.0,33.1,61,30.34,10.0,SSE,9.2,-,N/A,,Clear,160,2012-11-19 00:53:00
7:53 PM,46.0,35.1,66,30.32,9.0,SSE,9.2,-,N/A,,Clear,160,2012-11-19 01:53:00
8:53 PM,45.0,35.1,68,30.31,9.0,SSE,8.1,-,N/A,,Clear,150,2012-11-19 02:53:00
9:53 PM,45.0,34.0,65,30.30,9.0,SSE,4.6,-,N/A,,Clear,160,2012-11-19 03:53:00
10:53 PM,46.4,33.8,62,30.28,10.0,SSE,4.6,-,N/A,,Clear,160,2012-11-19 04:53:00
11:53 PM,45.0,34.0,65,30.29,10.0,South,5.8,-,N/A,,Clear,180,2012-11-19 05:53:00